Telluride, CO

4:19 AM MDT on March 28, 2017 (GMT -0600)
Telluride Regional

Weather History for KTEX - May, 2013

Change the Weather History Date:

Wednesday, May 15, 2013

  Actual Average Record
Temperature  
Mean Temperature 54 °F -  
Max Temperature 64 °F 57 °F 68 °F (2012)
Min Temperature 44 °F 37 °F 31 °F (2015)
Degree Days  
Heating Degree Days 11    
Growing Degree Days 4 (Base 50)    
Moisture  
Dew Point 27 °F    
Average Humidity 40    
Maximum Humidity 66    
Minimum Humidity 13    
Precipitation  
Precipitation 0.01 in - - ()
Sea Level Pressure  
Sea Level Pressure 30.21 in    
Wind  
Wind Speed 6 mph (SSE)    
Max Wind Speed 16 mph    
Max Gust Speed 26 mph    
Visibility 10 miles    
Events Rain , Thunderstorm    
Averages and records for this station are not official NWS values.
T = Trace of Precipitation, MM = Missing Value Source: NWS Daily Summary

Daily Weather History Graph

Daily Weather History Graph

Search for Another Location

Airport or City:

Trip Planner

Search our weather history database for the weather conditions in past years. The results will help you decide how hot, cold, wet, or windy it might be!

Date:

Astronomy

May. 15, 2013 Rise Set
Actual Time 6:01 AM MDT 8:15 PM MDT
Civil Twilight 5:31 AM MDT 8:44 PM MDT
Nautical Twilight 4:55 AM MDT 9:21 PM MDT
Astronomical Twilight 4:15 AM MDT 10:01 PM MDT
Moon 10:38 AM MDT (5/15) 12:04 AM MDT (5/15)
Length of Visible Light 15h 13m
Length of Day
14h 14m
Waxing Crescent, 27% of the Moon is Illuminated
May 15
Waxing Crescent
May 17
First Quarter
May 24
Full
May 31
Last Quarter
Jun 8
New

Hourly Weather History & Observations

Time (MDT) Temp. Windchill Dew Point Humidity Pressure Visibility Wind Dir Wind Speed Gust Speed Precip Events Conditions
12:15 AM 48.2 °F - 33.8 °F 58% 30.27 in 10.0 mi SE 8.1 mph - N/A   Unknown
12:35 AM 48.2 °F - 33.8 °F 58% 30.28 in 10.0 mi SE 8.1 mph - N/A   Unknown
12:55 AM 46.4 °F 43.5 °F 33.8 °F 62% 30.28 in 10.0 mi ESE 5.8 mph - N/A   Unknown
1:15 AM 46.4 °F 43.5 °F 33.8 °F 62% 30.27 in 10.0 mi ESE 5.8 mph - N/A   Unknown
1:35 AM 46.4 °F 43.5 °F 33.8 °F 62% 30.27 in 10.0 mi SE 5.8 mph - N/A   Unknown
1:55 AM 46.4 °F 43.5 °F 33.8 °F 62% 30.27 in 10.0 mi ESE 5.8 mph - N/A   Unknown
2:15 AM 46.4 °F 43.5 °F 32.0 °F 57% 30.26 in 10.0 mi ESE 5.8 mph - N/A   Unknown
2:35 AM 46.4 °F 44.3 °F 33.8 °F 62% 30.26 in 10.0 mi SE 4.6 mph - N/A   Unknown
2:55 AM 44.6 °F 40.7 °F 32.0 °F 61% 30.25 in 10.0 mi SE 6.9 mph - N/A   Unknown
3:15 AM 46.4 °F 44.3 °F 32.0 °F 57% 30.25 in 10.0 mi East 4.6 mph - N/A   Unknown
3:35 AM 44.6 °F 41.4 °F 32.0 °F 61% 30.24 in 10.0 mi ESE 5.8 mph - N/A   Unknown
3:55 AM 44.6 °F 41.4 °F 32.0 °F 61% 30.24 in 10.0 mi SE 5.8 mph - N/A   Unknown
4:15 AM 44.6 °F - 32.0 °F 61% 30.25 in 10.0 mi Calm Calm - N/A   Unknown
4:35 AM 46.4 °F - 32.0 °F 57% 30.25 in 10.0 mi Calm Calm - N/A   Unknown
4:55 AM 48.2 °F - 32.0 °F 54% 30.25 in 10.0 mi Calm Calm - N/A   Unknown
5:15 AM 46.4 °F 44.3 °F 32.0 °F 57% 30.25 in 10.0 mi ESE 4.6 mph - N/A   Unknown
5:35 AM 46.4 °F 43.5 °F 32.0 °F 57% 30.25 in 10.0 mi ESE 5.8 mph - N/A   Unknown
5:55 AM 46.4 °F - 32.0 °F 57% 30.26 in 10.0 mi Calm Calm - N/A   Unknown
6:15 AM 44.6 °F 40.2 °F 33.8 °F 66% 30.26 in 10.0 mi East 8.1 mph - N/A   Unknown
6:35 AM 46.4 °F 44.3 °F 32.0 °F 57% 30.26 in 10.0 mi SSE 4.6 mph - N/A   Unknown
6:55 AM 46.4 °F 43.5 °F 33.8 °F 62% 30.26 in 10.0 mi SE 5.8 mph - N/A   Unknown
7:15 AM 46.4 °F 44.3 °F 32.0 °F 57% 30.26 in 10.0 mi SE 4.6 mph - N/A   Unknown
7:35 AM 48.2 °F - 33.8 °F 58% 30.26 in 10.0 mi Calm Calm - N/A   Unknown
7:55 AM 51.8 °F - 33.8 °F 50% 30.26 in 10.0 mi Calm Calm - N/A   Unknown
8:15 AM 53.6 °F - 33.8 °F 47% 30.26 in 10.0 mi East 5.8 mph - N/A   Unknown
8:35 AM 55.4 °F - 32.0 °F 41% 30.27 in 10.0 mi Calm Calm - N/A   Unknown
8:55 AM 57.2 °F - 33.8 °F 41% 30.26 in 10.0 mi NE 3.5 mph - N/A   Unknown
9:15 AM 59.0 °F - 32.0 °F 36% 30.26 in 10.0 mi Calm Calm - N/A   Unknown
9:35 AM 59.0 °F - 30.2 °F 34% 30.26 in 10.0 mi Calm Calm - N/A   Unknown
9:55 AM 60.8 °F - 30.2 °F 31% 30.25 in 10.0 mi WSW 5.8 mph - N/A   Unknown
10:15 AM 62.6 °F - 30.2 °F 30% 30.24 in 10.0 mi WSW 10.4 mph - N/A   Unknown
10:35 AM 62.6 °F - 30.2 °F 30% 30.24 in 10.0 mi SW 6.9 mph - N/A   Unknown
3:35 PM 60.8 °F - 32.0 °F 34% 30.18 in 10.0 mi ENE 3.5 mph - N/A   Mostly Cloudy
3:55 PM 57.2 °F - 39.2 °F 51% 30.18 in 7.0 mi NNW 3.5 mph - 0.01 in Rain Light Rain
4:15 PM 60.8 °F - 32.0 °F 34% 30.17 in 10.0 mi Calm Calm - N/A   Mostly Cloudy
4:35 PM 60.8 °F - 37.4 °F 42% 30.16 in 10.0 mi East 10.4 mph - N/A Thunderstorm Mostly Cloudy
4:55 PM 60.8 °F - 35.6 °F 39% 30.16 in 10.0 mi East 10.4 mph 16.1 mph N/A   Scattered Clouds
5:15 PM 60.8 °F - 33.8 °F 36% 30.15 in 10.0 mi East 6.9 mph - N/A   Scattered Clouds
5:35 PM 60.8 °F - 32.0 °F 34% 30.15 in 10.0 mi Calm Calm - N/A   Mostly Cloudy
5:55 PM 62.6 °F - 32.0 °F 32% 30.14 in 10.0 mi South 3.5 mph - N/A   Mostly Cloudy
6:15 PM 64.4 °F - 23.0 °F 21% 30.13 in 10.0 mi South 12.7 mph 21.9 mph N/A   Mostly Cloudy
6:35 PM 64.4 °F - 19.4 °F 18% 30.13 in 10.0 mi WSW 16.1 mph 26.5 mph N/A   Scattered Clouds
6:55 PM 64.4 °F - 17.6 °F 16% 30.13 in 10.0 mi SW 10.4 mph 18.4 mph N/A   Scattered Clouds
7:15 PM 62.6 °F - 15.8 °F 16% 30.14 in 10.0 mi SSW 10.4 mph 21.9 mph N/A Thunderstorm Scattered Clouds
7:35 PM 62.6 °F - 17.6 °F 18% 30.14 in 10.0 mi WSW 5.8 mph - N/A   Scattered Clouds
7:55 PM 62.6 °F - 14.0 °F 15% 30.14 in 10.0 mi SW 11.5 mph 19.6 mph N/A   Mostly Cloudy
8:15 PM 62.6 °F - 12.2 °F 14% 30.14 in 10.0 mi SW 11.5 mph 18.4 mph N/A   Mostly Cloudy
8:35 PM 60.8 °F - 10.4 °F 14% 30.15 in 10.0 mi SW 12.7 mph 21.9 mph N/A   Scattered Clouds
8:55 PM 60.8 °F - 8.6 °F 13% 30.16 in 10.0 mi SSW 6.9 mph - N/A   Clear
9:15 PM 59.0 °F - 8.6 °F 14% 30.16 in 10.0 mi SW 9.2 mph 18.4 mph N/A   Clear
9:35 PM 59.0 °F - 8.6 °F 14% 30.17 in 10.0 mi SSW 9.2 mph - N/A   Clear
9:55 PM 59.0 °F - 6.8 °F 13% 30.18 in 10.0 mi SSW 5.8 mph - N/A Thunderstorm Mostly Cloudy
10:15 PM 57.2 °F - 6.8 °F 13% 30.19 in 10.0 mi SSW 4.6 mph - N/A   Scattered Clouds
10:35 PM 55.4 °F - 10.4 °F 17% 30.19 in 10.0 mi Calm Calm - N/A   Clear
10:55 PM 55.4 °F - 12.2 °F 18% 30.19 in 10.0 mi SE 3.5 mph - N/A   Clear
11:15 PM 51.8 °F - 14.0 °F 22% 30.18 in 10.0 mi Calm Calm - N/A   Clear
11:35 PM 50.0 °F - 19.4 °F 30% 30.18 in 10.0 mi East 4.6 mph - N/A   Clear
11:55 PM 50.0 °F - 15.8 °F 26% 30.18 in 10.0 mi ESE 6.9 mph - N/A   Clear